Regional Weather Roundup
Issued by NWS Columbia, SC

Home | Current Version | Previous Version | Text Only | Print | Product List | Glossary On
Versions: 1 2 3 4 5 6 7 8 9 10 11 12 13 14 15 16 17 18 19 20 21 22 23 24 25 26 27
000
ASUS42 KCAE 271610
RWRCAE
REGIONAL WEATHER ROUNDUP
NATIONAL WEATHER SERVICE COLUMBIA SC
1200 PM EDT TUE JUN 27 2017

NOTE: "FAIR" INDICATES FEW OR NO CLOUDS BELOW 12,000 FEET WITH NO
SIGNIFICANT WEATHER AND/OR OBSTRUCTIONS TO VISIBILITY.

NOT ALL STATIONS ARE QUALITY CONTROLLED BY THE NATIONAL
WEATHER SERVICE. USE DATA WITH CAUTION...ESPECIALLY
DEWPOINT OBSERVATIONS.

SCZ001>056-GAZ040-063>065-077-271700-
...UPSTATE SOUTH CAROLINA...

CITY           SKY/WX    TMP DP  RH WIND       PRES   REMARKS
ANDERSON       SUNNY     80  56  43 SE5       30.09S
LIBERTY        SUNNY     80  56  44 N3        30.09S
SPARTANBURG    SUNNY     79  52  38 NE6       30.09F
CLEMSON        SUNNY     78  57  48 CALM      30.10S
GREENVILLE     SUNNY     81  54  39 NE8       30.11S
GREENWOOD      SUNNY     79  57  46 N7        30.10S
GREER          SUNNY     79  56  45 NE8       30.09S
ROCK HILL      SUNNY     80  54  40 VRB6      30.09F
CHESTER        SUNNY     79  52  38 N10       30.09F
LAURENS        SUNNY     79  57  47 NE9       30.08F


...CENTRAL SOUTH CAROLINA...

CITY           SKY/WX    TMP DP  RH WIND       PRES   REMARKS
COLUMBIA APT   PTSUNNY   84  62  47 N7        30.04F
COLUMBIA OWENS CLOUDY    84  62  47 VRB5      30.05F
ORANGEBURG     MOSUNNY   83  62  49 VRB7      30.04F
NEWBERRY       SUNNY     81  59  47 NE10      30.10F
AIKEN          FAIR      81  57  44 W6        30.09F
BARNWELL       FAIR      86  68  54 CALM      30.04F
MANNING        FAIR      82  66  57 N8        30.04F
CAMDEN         FAIR      82  59  44 N10       30.06S
LANCASTER      MOSUNNY   77  57  50 N7        30.09S
WINNSBORO      MOSUNNY   81  59  47 N9        30.07S


...EASTERN AND COASTAL SOUTH CAROLINA...

CITY           SKY/WX    TMP DP  RH WIND       PRES   REMARKS
MYRTLE BEACH   SUNNY     82  63  51 W6        30.05S
N MYRTLE BCH   MOSUNNY   84  64  50 NW5       30.03F
CONWAY         FAIR      82  63  51 SW3       30.04S
MARION         FAIR      82  61  47 N3        30.04F
HARTSVILLE     FAIR      82  57  42 NE8       30.05F
FLORENCE       SUNNY     84  61  45 W7        30.04F
DARLINGTON     MOSUNNY   83  60  45 N8        30.05F
CHARLESTON APT CLOUDY    83  64  52 NE6       30.04S
MOUNT PLEASANT FAIR      82  66  57 N3        30.04S
WALTERBORO     MOSUNNY   82  66  57 NE3       30.05F
BEAUFORT       PTSUNNY   85  70  60 VRB5      30.04S


...EASTERN GEORGIA...

CITY           SKY/WX    TMP DP  RH WIND       PRES   REMARKS
AUGUSTA BUSH F SUNNY     87  63  44 N10       30.04F
AUGUSTA DANIEL MOSUNNY   85  56  37 N5        30.06F
THOMSON        PTSUNNY   81  59  47 NE8       30.12F HAZE
WASHINGTON     FAIR      81  63  54 N5        30.08F
CLAXTON        PTSUNNY   82  71  69 CALM      30.04F
SYLVANIA       CLOUDY    83  71  68 N3        30.06S
STATESBORO     CLOUDY    84  71  64 N5        30.04F
SAVANNAH       CLOUDY    84  70  62 NE5       30.04S


...SOUTHERN NORTH CAROLINA...

CITY           SKY/WX    TMP DP  RH WIND       PRES   REMARKS
CHARLOTTE      MOSUNNY   80  56  43 N12       30.10S
MONROE         SUNNY     79  54  41 N12G17    30.08S
WADESBORO      SUNNY     80  55  43 N8        30.08R
ROCKINGHAM     MOSUNNY   79  57  47 NE7       30.06F
ASHEVILLE      SUNNY     72  46  39 N10       30.16S

$$




USA.gov is the U.S. government's official web portal to all federal, state and local government web resources and services.